Wind_Speed
7 7 10 11 14 16 17 16 17 18 18 18 19 19 20 19 16 18 18 17 17 17 19 20 21 22 23 23 22 20 21 21 22 20 19 19 19 19 19 20 21 21 20
8 9 11 11 13 15 15 15 15 16 16 17 16 17 17 17 18 18 16 17 18 17 18 19 21 22 24 24 23 21 20 19 19 19 19 18 18 18 18 18 20 18 19
11 11 12 11 12 13 13 13 13 13 14 14 15 15 16 17 17 18 16 16 17 17 17 18 20 22 23 23 23 21 17 15 16 18 18 18 16 15 16 17 17 17 18
13 12 12 11 11 11 11 11 11 12 12 13 14 14 15 17 18 16 15 15 14 15 15 17 19 21 20 21 18 15 12 12 14 16 17 17 11 14 14 14 15 16 16
15 13 11 10 10 10 10 10 10 10 11 12 12 13 14 16 17 16 14 13 12 13 14 16 16 16 15 10 8 6 6 11 13 14 15 14 13 12 12 13 13 14 14
16 14 11 10 10 9 9 10 9 9 9 10 10 11 12 12 14 12 10 12 12 13 13 13 12 11 10 10 7 3 11 11 13 13 12 11 10 10 11 10 13 12 11
18 14 11 10 10 10 10 9 9 9 8 9 9 9 9 9 9 10 11 11 12 11 10 10 9 8 9 13 9 7 11 9 9 9 8 7 6 6 7 7 9 10 11
20 16 14 13 12 11 11 10 9 8 8 7 7 7 6 7 8 8 8 10 9 9 9 7 7 6 8 12 13 14 10 6 6 6 5 5 3 7 8 7 8 8 9
24 20 17 14 13 13 12 11 9 8 6 6 5 4 5 5 6 7 6 7 7 7 7 7 6 5 4 8 10 7 6 4 2 3 1 2 3 7 7 7 6 6 5
30 26 24 19 16 16 13 11 10 9 7 6 4 3 3 4 4 5 6 6 4 4 5 5 6 5 4 5 6 4 3 1 1 2 2 1 2 3 4 3 4 4 3
37 31 27 24 20 19 17 13 10 9 8 7 5 2 1 1 2 2 3 4 4 2 1 3 4 5 5 7 6 5 2 1 5 6 4 2 3 3 2 2 2 2 1
34 33 30 27 22 20 22 17 15 14 9 8 7 7 5 3 2 2 3 4 4 2 1 1 3 4 5 8 7 5 3 6 9 9 8 5 5 6 5 3 3 3 3
30 34 32 28 29 24 23 23 21 18 14 14 7 8 8 9 9 9 9 7 6 7 6 3 2 4 7 9 7 5 4 6 6 6 9 7 6 9 7 6 5 5 5
33 34 31 29 27 27 26 23 25 22 20 17 15 14 8 7 11 13 16 15 11 8 9 8 5 5 8 9 7 8 7 7 7 8 11 11 6 8 9 8 7 7 6
35 35 33 30 29 28 27 28 27 29 27 24 21 16 14 11 8 9 10 14 17 15 13 11 10 11 10 11 11 11 10 10 10 10 11 13 9 7 9 9 9 8 9
30 33 33 32 28 28 28 28 28 28 28 28 28 24 17 15 14 10 9 7 11 17 21 20 17 15 16 16 14 13 13 13 13 14 14 14 13 10 11 11 11 11 11
25 28 31 31 28 27 27 27 27 25 26 27 29 28 25 22 13 12 11 9 9 7 12 17 22 23 24 24 22 22 19 16 14 16 18 17 16 14 13 14 14 13 13
20 24 27 29 28 26 23 25 25 26 26 26 27 28 28 25 25 15 14 9 13 13 8 5 9 18 19 18 21 21 15 16 18 20 20 20 21 19 19 16 16 17 16
17 21 25 27 28 26 24 24 25 27 27 27 26 27 28 26 25 24 23 21 13 13 17 12 3 6 12 12 16 19 20 21 19 17 21 22 25 25 23 22 20 19 19
14 19 21 24 27 26 24 22 24 26 27 27 28 28 28 27 27 27 26 24 23 18 18 17 18 15 17 19 20 21 21 21 20 21 21 22 25 29 29 27 25 26 22
13 15 17 22 25 28 27 25 25 25 25 26 26 27 28 28 29 28 27 26 25 23 22 21 17 14 24 22 24 19 19 22 23 24 22 22 23 28 31 34 32 29 28
13 12 14 19 22 24 24 23 20 20 22 23 24 25 26 25 28 29 28 29 24 24 24 25 28 21 12 13 6 12 4 9 15 26 26 28 26 26 30 35 36 36 33
11 11 12 16 19 21 21 21 22 21 22 26 25 25 26 24 26 27 27 30 26 23 24 22 24 23 18 16 13 7 3 3 5 6 14 18 23 27 28 31 35 36 37
8 9 9 11 15 18 20 21 23 22 21 20 21 22 23 23 25 26 25 30 27 23 23 23 23 23 25 20 21 11 23 20 4 7 12 16 13 18 20 23 29 33 34
5 7 8 8 10 12 16 18 20 20 19 20 21 22 23 22 23 24 23 27 26 24 25 25 25 23 21 20 17 21 22 18 21 11 8 11 20 25 15 10 8 16 23
4 4 4 3 6 8 11 14 16 17 17 18 19 21 22 22 22 23 21 24 24 21 25 25 24 23 23 19 17 17 16 8 18 11 9 11 11 23 23 21 20 17 17
Wind_Direction
71 95 91 85 81 77 72 75 82 81 79 82 84 82 85 85 85 87 85 86 87 85 89 95 100 96 97 98 95 95 99 99 99 96 99 97 95 95 98 99 99 95 94
107 100 95 88 82 78 74 75 78 77 79 81 81 82 86 85 86 84 83 85 83 84 88 96 97 100 101 99 95 94 94 97 97 95 97 94 93 94 101 106 101 100 98
103 102 95 88 82 77 75 78 78 76 76 80 85 87 89 87 86 83 87 87 88 87 90 95 98 102 102 96 92 87 87 95 96 99 95 89 90 94 97 101 107 103 99
104 93 87 84 78 76 74 75 79 79 80 83 87 90 90 87 84 82 80 83 85 89 92 99 105 108 107 102 87 78 78 93 100 99 98 99 88 91 93 95 97 95 95
87 87 83 80 74 71 71 73 75 75 80 85 88 91 92 88 83 77 83 87 86 91 96 105 106 106 107 101 57 54 87 106 108 101 103 102 96 89 89 95 96 97 98
85 77 69 64 61 60 64 71 74 73 78 84 90 95 97 99 102 97 89 92 91 98 104 106 106 99 86 49 17 38 119 111 110 109 109 111 106 109 101 105 99 99 96
76 69 61 56 52 49 51 55 62 68 72 81 93 96 96 96 104 106 89 94 100 108 110 109 108 93 67 41 15 121 128 117 116 115 114 115 113 118 113 110 107 113 103
71 60 55 46 47 51 47 49 54 61 61 69 91 99 92 88 92 90 86 93 103 113 118 113 116 96 67 56 70 114 125 114 113 126 137 138 127 119 112 105 104 108 112
65 58 50 46 48 46 41 39 38 46 54 60 72 93 88 85 87 67 72 87 102 113 128 136 145 131 93 81 103 119 140 138 109 119 135 140 159 125 122 119 120 119 113
56 51 48 52 52 40 31 34 29 30 31 36 44 57 78 82 70 53 51 58 90 115 132 147 164 173 165 139 127 118 135 193 314 347 289 199 135 143 142 143 140 142 140
48 44 43 44 50 46 39 34 23 18 17 10 10 6 2 75 78 47 40 42 49 45 128 167 178 188 190 177 159 166 145 322 300 291 305 276 187 220 205 223 161 170 170
43 39 43 42 40 48 48 49 43 34 22 358 349 343 304 285 287 324 320 309 317 321 336 275 221 205 191 179 181 186 242 281 291 271 274 284 203 223 238 236 231 233 248
43 43 42 46 48 50 47 49 50 48 43 45 24 330 303 291 284 287 288 291 293 300 289 259 230 205 177 174 197 233 265 297 289 265 255 266 233 220 240 231 240 242 246
45 43 44 46 46 47 50 53 55 44 47 43 37 18 1 296 292 286 293 276 275 289 297 281 242 193 188 204 238 267 279 298 281 278 248 253 251 235 239 237 241 241 237
44 43 41 40 43 49 53 60 59 53 50 45 41 33 28 31 6 342 315 288 273 275 278 279 258 244 235 238 249 261 267 272 268 266 259 251 261 242 255 258 249 244 237
47 43 41 41 45 53 59 59 53 52 48 46 42 38 31 20 16 5 349 333 299 283 280 274 268 268 266 267 265 265 268 271 259 253 249 247 251 254 255 255 252 253 243
53 46 42 40 43 50 58 57 55 49 45 44 40 38 34 29 15 13 1 340 335 333 295 279 274 274 276 272 270 268 265 262 258 259 247 245 245 249 253 256 253 249 250
62 52 45 40 41 47 54 54 55 50 49 43 40 36 33 32 28 21 8 356 316 311 316 274 273 272 278 280 280 273 270 260 258 251 251 248 245 245 249 252 252 254 250
70 57 49 42 40 42 51 56 54 52 49 42 39 34 29 31 28 26 21 18 347 335 308 300 266 320 319 293 274 269 268 262 264 262 250 249 252 248 248 251 253 251 252
71 58 48 44 40 41 45 51 51 48 45 43 40 35 28 26 24 21 22 19 18 15 3 347 291 295 311 324 316 291 267 261 263 262 257 254 258 252 251 252 252 249 248
80 66 52 50 42 36 35 38 41 41 40 40 36 33 31 28 23 22 20 19 18 21 15 17 2 260 279 292 312 323 304 269 261 262 252 251 257 258 256 256 254 251 250
77 72 62 60 46 42 39 39 41 37 37 37 32 32 30 28 26 24 23 19 17 18 18 18 13 8 340 334 298 320 304 307 278 263 264 252 252 259 261 257 256 254 251
85 81 63 58 48 43 39 38 36 34 32 27 26 25 26 29 26 23 23 21 19 20 25 25 17 16 351 350 325 243 282 249 345 300 269 276 261 256 259 263 257 255 254
107 96 87 63 49 40 36 40 38 34 26 19 20 20 21 25 26 24 21 18 21 22 19 10 8 6 3 359 355 337 265 256 264 299 266 269 297 270 262 260 265 263 262
125 100 97 75 61 47 36 36 37 37 28 16 13 16 19 21 24 22 20 17 20 17 12 8 1 1 357 351 355 346 334 278 248 234 279 273 270 273 265 250 265 278 278
169 127 115 84 64 46 34 36 33 31 26 18 12 8 10 13 16 18 17 15 16 14 9 10 8 7 1 355 351 350 344 331 333 254 238 257 260 268 268 259 251 260 281
Height
855 855 854 854 853 852 851 851 850 849 848 848 848 847 846 846 845 845 845 845 845 845 845 844 845 844 845 845 846 846 846 846 846 846 845 845 845 845 845 845 845 846 846
857 857 856 857 856 855 854 855 854 852 851 851 851 850 849 849 849 849 848 848 849 849 849 849 848 848 849 849 850 850 851 850 850 850 849 849 848 848 847 848 848 848 848
858 859 859 860 859 858 857 857 857 856 854 854 854 853 852 852 851 851 851 852 852 852 853 853 852 853 853 853 853 854 854 854 853 853 853 853 852 852 851 851 851 850 850
861 862 863 863 862 861 860 860 859 859 858 857 857 856 855 854 853 853 853 854 855 856 856 856 856 857 858 858 858 858 858 857 857 857 856 856 856 856 855 855 854 854 853
864 866 866 865 864 864 863 862 862 861 860 860 860 859 858 857 856 855 856 857 858 858 859 859 860 860 861 861 861 860 859 860 860 859 859 859 859 859 858 858 858 857 856
868 869 870 868 867 866 866 864 863 863 862 862 862 862 861 860 858 858 857 858 859 860 861 861 862 863 863 863 862 861 861 862 862 862 862 862 861 862 862 861 860 860 860
871 872 872 871 870 869 868 867 866 865 865 864 864 864 863 863 862 861 860 860 861 861 862 863 864 865 865 864 861 861 863 864 864 864 864 864 864 863 863 863 863 863 863
873 875 874 874 872 871 870 870 868 867 867 867 866 866 866 865 865 864 863 862 862 863 863 864 865 866 867 866 865 865 866 867 867 866 866 866 865 865 865 865 865 865 865
877 876 875 875 874 873 872 872 871 869 869 868 868 868 867 867 867 867 866 864 864 864 864 864 865 867 868 869 869 869 869 869 869 868 868 867 867 866 867 867 867 867 867
879 880 879 876 876 875 874 873 872 871 870 870 870 870 869 869 869 868 868 866 865 865 865 865 866 866 867 868 869 870 870 870 870 870 869 869 869 868 868 869 868 868 869
883 884 882 880 878 878 876 874 873 872 871 871 871 871 871 870 869 869 868 868 867 866 866 866 866 867 867 868 869 869 869 870 870 870 870 870 870 869 870 870 870 870 870
889 890 886 884 881 880 878 876 875 872 872 872 872 872 872 871 870 870 869 869 868 867 866 866 866 866 867 868 869 869 870 869 869 869 870 870 870 870 870 870 871 871 872
897 893 889 888 885 882 880 879 876 874 873 871 872 871 871 871 871 871 870 869 868 868 867 866 865 866 866 867 868 869 869 869 868 868 868 869 870 870 869 870 871 871 872
900 898 896 892 890 886 884 881 879 877 875 873 872 871 870 870 871 870 869 869 868 867 867 866 866 866 866 867 867 867 867 868 868 867 868 868 868 869 870 869 870 871 871
901 901 899 896 893 890 887 884 882 881 878 877 874 872 871 870 869 869 868 868 867 867 866 866 866 866 866 865 865 866 865 866 866 866 867 867 867 867 868 868 869 870 870
908 906 903 899 896 893 891 888 887 884 882 880 877 874 872 870 868 867 867 866 866 866 865 865 865 865 865 864 863 863 863 864 864 864 864 865 865 866 867 867 867 868 869
911 910 907 904 901 897 895 893 889 888 885 883 880 877 874 870 869 866 866 866 865 864 862 861 862 862 862 861 860 860 860 860 861 861 862 863 863 863 864 866 866 866 867
917 914 912 908 905 901 898 895 893 891 887 885 883 880 878 874 871 866 865 863 863 863 861 857 857 858 858 857 856 856 855 856 856 857 858 859 860 860 861 862 864 865 865
921 918 915 912 907 904 901 898 897 894 891 889 886 883 881 877 874 871 868 864 861 859 860 857 851 855 857 855 854 852 852 852 852 853 854 855 856 857 857 858 859 861 863
922 919 917 913 909 906 904 901 898 896 894 892 889 886 883 880 876 873 870 866 863 860 859 855 853 852 855 854 853 849 847 847 848 847 847 850 851 852 853 854 855 856 858
922 921 918 915 912 907 904 901 899 898 897 894 891 889 886 883 880 875 872 868 865 862 859 857 851 848 849 851 853 848 843 841 841 843 842 842 843 846 848 849 850 851 853
923 922 920 917 914 911 908 906 904 902 900 897 894 891 888 885 882 879 875 871 868 865 861 857 855 851 851 853 852 851 847 839 836 836 838 836 835 838 840 841 843 845 847
923 923 920 918 916 914 912 909 906 903 900 897 896 893 890 888 885 881 878 874 870 867 864 862 859 857 856 854 851 850 849 843 836 833 834 834 832 830 830 833 835 837 839
924 922 920 919 918 916 913 910 907 905 903 903 900 897 894 890 887 883 880 876 872 869 867 865 862 860 856 854 849 848 846 843 839 835 832 831 829 827 825 825 830 832 834
923 922 920 919 918 917 915 912 910 908 906 904 901 898 895 892 889 885 881 878 874 871 868 866 863 860 858 855 853 849 843 837 835 835 831 827 826 825 824 820 822 826 828
923 921 921 919 917 916 915 913 911 909 907 905 901 899 896 893 889 885 882 879 876 873 869 866 864 861 857 854 852 850 848 844 839 825 826 825 822 820 820 819 815 818 822